DLH989 EHAM-EDDF

Flight info

Callsign DLH989
Flight time 0h 45m
Altitude 33000
Route EDUPO Z739 MISGO DCT DIXAT DIXAT1A
Aircraft A321/M-SDE3FGHIRWY/LB1

Departure

Time 2026-05-07 10:16
Airport Amsterdam Airport Schiphol (EHAM)

Arrival

Time 2026-05-07 11:01
Airport Frankfurt Main Airport (EDDF)
Time Latitude Longitude Altitude Speed Heading
2026-05-07 09:33 52.30582 4.76704 2 ft 0 kts 215°
2026-05-07 09:59 52.30594 4.76717 2 ft 4 kts 213°
2026-05-07 09:59 52.30617 4.76739 3 ft 4 kts 204°
2026-05-07 09:59 52.30642 4.76752 1 ft 4 kts 182°
2026-05-07 10:00 52.30662 4.76746 0 ft 1 kts 146°
2026-05-07 10:00 52.30663 4.76746 0 ft 0 kts 146°
2026-05-07 10:04 52.30661 4.76748 0 ft 1 kts 146°
2026-05-07 10:04 52.30639 4.76772 1 ft 5 kts 146°
2026-05-07 10:04 52.30625 4.76798 2 ft 2 kts 111°
2026-05-07 10:05 52.30638 4.76870 3 ft 10 kts 67°
2026-05-07 10:05 52.30645 4.76973 4 ft 9 kts 116°
2026-05-07 10:05 52.30587 4.77047 6 ft 15 kts 149°
2026-05-07 10:05 52.30497 4.77136 9 ft 15 kts 141°
2026-05-07 10:06 52.30486 4.77278 12 ft 14 kts 63°
2026-05-07 10:06 52.30546 4.77440 12 ft 17 kts 58°
2026-05-07 10:06 52.30627 4.77572 14 ft 17 kts 22°
2026-05-07 10:06 52.30746 4.77598 13 ft 18 kts
2026-05-07 10:07 52.30872 4.77612 13 ft 19 kts
2026-05-07 10:07 52.31006 4.77622 13 ft 19 kts
2026-05-07 10:07 52.31139 4.77631 13 ft 20 kts
2026-05-07 10:07 52.31276 4.77653 14 ft 20 kts
2026-05-07 10:08 52.31408 4.77653 16 ft 19 kts 357°
2026-05-07 10:08 52.31526 4.77542 12 ft 21 kts 315°
2026-05-07 10:08 52.31577 4.77330 10 ft 22 kts 265°
2026-05-07 10:08 52.31571 4.77073 10 ft 23 kts 267°
2026-05-07 10:09 52.31562 4.76818 11 ft 23 kts 266°
2026-05-07 10:09 52.31554 4.76566 16 ft 21 kts 268°
2026-05-07 10:09 52.31546 4.76335 17 ft 21 kts 265°
2026-05-07 10:09 52.31537 4.76093 18 ft 21 kts 267°
2026-05-07 10:10 52.31528 4.75848 15 ft 23 kts 266°
2026-05-07 10:10 52.31518 4.75570 13 ft 25 kts 267°
2026-05-07 10:10 52.31508 4.75282 9 ft 26 kts 266°
2026-05-07 10:10 52.31498 4.74990 13 ft 25 kts 267°
2026-05-07 10:11 52.31488 4.74708 15 ft 25 kts 267°
2026-05-07 10:11 52.31480 4.74444 17 ft 21 kts 267°
2026-05-07 10:11 52.31467 4.74234 14 ft 18 kts 249°
2026-05-07 10:11 52.31373 4.74136 16 ft 17 kts 184°
2026-05-07 10:12 52.31249 4.74122 14 ft 19 kts 183°
2026-05-07 10:12 52.31110 4.74110 12 ft 21 kts 183°
2026-05-07 10:12 52.30960 4.74099 11 ft 22 kts 182°
2026-05-07 10:12 52.30808 4.74081 11 ft 22 kts 183°
2026-05-07 10:13 52.30705 4.74073 13 ft 22 kts 182°
2026-05-07 10:13 52.30581 4.74062 15 ft 14 kts 182°
2026-05-07 10:13 52.30476 4.74053 14 ft 16 kts 183°
2026-05-07 10:13 52.30366 4.74041 16 ft 15 kts 185°
2026-05-07 10:14 52.30267 4.73981 17 ft 16 kts 213°
2026-05-07 10:14 52.30195 4.73846 16 ft 16 kts 259°
2026-05-07 10:14 52.30254 4.73752 13 ft 13 kts 22°
2026-05-07 10:14 52.30298 4.73763 12 ft 0 kts
2026-05-07 10:15 52.30301 4.73763 12 ft 2 kts
2026-05-07 10:15 52.30322 4.73764 12 ft 5 kts
2026-05-07 10:15 52.30513 4.73776 15 ft 63 kts
2026-05-07 10:15 52.31191 4.73819 16 ft 130 kts
2026-05-07 10:16 52.32271 4.73937 41 ft 177 kts
2026-05-07 10:16 52.33504 4.74086 678 ft 179 kts
2026-05-07 10:16 52.34694 4.74700 1408 ft 183 kts 22°
2026-05-07 10:16 52.35935 4.75548 1765 ft 204 kts 22°
2026-05-07 10:17 52.37314 4.76527 2015 ft 229 kts 27°
2026-05-07 10:17 52.38616 4.78204 2449 ft 247 kts 47°
2026-05-07 10:17 52.39809 4.80284 3217 ft 252 kts 46°
2026-05-07 10:17 52.41018 4.82391 4061 ft 256 kts 50°
2026-05-07 10:18 52.41940 4.84915 4850 ft 261 kts 67°
2026-05-07 10:18 52.42367 4.87830 5643 ft 267 kts 85°
2026-05-07 10:18 52.42391 4.90903 6362 ft 272 kts 90°
2026-05-07 10:18 52.42389 4.94017 7112 ft 275 kts 92°
2026-05-07 10:19 52.42026 4.97110 7815 ft 279 kts 110°
2026-05-07 10:19 52.41090 4.99899 8536 ft 282 kts 129°
2026-05-07 10:19 52.39661 5.02113 9265 ft 285 kts 145°
2026-05-07 10:19 52.38028 5.03981 9997 ft 288 kts 146°
2026-05-07 10:20 52.36355 5.05894 10391 ft 303 kts 146°
2026-05-07 10:20 52.34726 5.08254 10511 ft 326 kts 130°
2026-05-07 10:20 52.33243 5.11218 10642 ft 346 kts 129°
2026-05-07 10:20 52.31700 5.14348 10930 ft 359 kts 129°
2026-05-07 10:21 52.30124 5.17560 11457 ft 365 kts 129°
2026-05-07 10:21 52.28545 5.20772 12028 ft 369 kts 129°
2026-05-07 10:21 52.26906 5.24096 12617 ft 373 kts 129°
2026-05-07 10:21 52.25268 5.27404 13175 ft 377 kts 129°
2026-05-07 10:22 52.23629 5.30696 13764 ft 380 kts 129°
2026-05-07 10:22 52.21950 5.34051 14267 ft 384 kts 129°
2026-05-07 10:22 52.20256 5.37435 14840 ft 385 kts 129°
2026-05-07 10:22 52.18554 5.40834 15356 ft 389 kts 130°
2026-05-07 10:23 52.16835 5.44265 15880 ft 392 kts 130°
2026-05-07 10:23 52.15107 5.47715 16400 ft 395 kts 130°
2026-05-07 10:23 52.13361 5.51199 16925 ft 397 kts 130°
2026-05-07 10:23 52.11608 5.54689 17446 ft 400 kts 130°
2026-05-07 10:24 52.09840 5.58197 17929 ft 403 kts 130°
2026-05-07 10:24 52.08060 5.61728 18417 ft 405 kts 130°
2026-05-07 10:24 52.06268 5.65274 18856 ft 407 kts 130°
2026-05-07 10:24 52.04439 5.68891 19266 ft 410 kts 130°
2026-05-07 10:25 52.02645 5.72437 19683 ft 412 kts 130°
2026-05-07 10:25 52.00818 5.76047 20092 ft 415 kts 130°
2026-05-07 10:25 51.98976 5.79678 20526 ft 418 kts 130°
2026-05-07 10:25 51.97124 5.83324 20962 ft 420 kts 130°
2026-05-07 10:26 51.95258 5.86993 21406 ft 422 kts 130°
2026-05-07 10:26 51.93384 5.90673 21855 ft 425 kts 130°
2026-05-07 10:26 51.91491 5.94377 22260 ft 428 kts 130°
2026-05-07 10:26 51.89586 5.98092 22667 ft 430 kts 130°
2026-05-07 10:27 51.87664 6.01825 23054 ft 433 kts 130°
2026-05-07 10:27 51.85731 6.05581 23450 ft 435 kts 130°
2026-05-07 10:27 51.83770 6.09328 23801 ft 438 kts 131°
2026-05-07 10:27 51.81766 6.13050 24135 ft 440 kts 132°
2026-05-07 10:28 51.79735 6.16751 24479 ft 442 kts 132°
2026-05-07 10:28 51.77678 6.20467 24807 ft 444 kts 133°
2026-05-07 10:28 51.75617 6.24186 25143 ft 446 kts 132°
2026-05-07 10:28 51.73549 6.27925 25472 ft 448 kts 132°
2026-05-07 10:29 51.71475 6.31687 25795 ft 450 kts 132°
2026-05-07 10:29 51.69392 6.35480 26109 ft 452 kts 132°
2026-05-07 10:29 51.67303 6.39289 26429 ft 454 kts 132°
2026-05-07 10:30 51.63097 6.46933 27064 ft 458 kts 132°
2026-05-07 10:30 51.60976 6.50776 27351 ft 460 kts 132°
2026-05-07 10:30 51.58847 6.54635 27646 ft 462 kts 132°
2026-05-07 10:30 51.56706 6.58502 27904 ft 464 kts 132°
2026-05-07 10:31 51.54554 6.62374 28148 ft 466 kts 132°
2026-05-07 10:31 51.52391 6.66257 28421 ft 467 kts 132°
2026-05-07 10:31 51.50214 6.70161 28714 ft 468 kts 132°
2026-05-07 10:31 51.48052 6.74037 29101 ft 466 kts 132°
2026-05-07 10:32 51.45894 6.77901 29488 ft 464 kts 132°
2026-05-07 10:32 51.43742 6.81745 29826 ft 464 kts 132°
2026-05-07 10:32 51.41588 6.85584 30180 ft 463 kts 132°
2026-05-07 10:32 51.39456 6.89433 30453 ft 462 kts 130°
2026-05-07 10:33 51.37392 6.93393 30709 ft 462 kts 129°
2026-05-07 10:33 51.35401 6.97421 30993 ft 461 kts 127°
2026-05-07 10:33 51.33443 7.01481 31290 ft 460 kts 127°
2026-05-07 10:33 51.31489 7.05538 31599 ft 459 kts 127°
2026-05-07 10:34 51.29527 7.09567 31837 ft 460 kts 128°
2026-05-07 10:34 51.27354 7.13303 32083 ft 460 kts 138°
2026-05-07 10:34 51.24820 7.16422 32311 ft 460 kts 148°
2026-05-07 10:34 51.22042 7.18840 32552 ft 460 kts 154°
2026-05-07 10:35 51.19167 7.21083 32795 ft 460 kts 154°
2026-05-07 10:35 51.16475 7.23207 32990 ft 461 kts 154°
2026-05-07 10:35 51.10731 7.27769 33044 ft 458 kts 153°
2026-05-07 10:36 51.05056 7.32412 33047 ft 458 kts 153°
2026-05-07 10:36 50.99408 7.37134 33049 ft 459 kts 153°
2026-05-07 10:37 50.93731 7.41831 33049 ft 461 kts 153°
2026-05-07 10:37 50.88039 7.46477 33057 ft 460 kts 153°
2026-05-07 10:38 50.82348 7.51113 33051 ft 460 kts 153°
2026-05-07 10:38 50.76673 7.55752 33052 ft 459 kts 153°
2026-05-07 10:39 50.70991 7.60364 33049 ft 459 kts 153°
2026-05-07 10:39 50.65314 7.64964 33045 ft 459 kts 153°
2026-05-07 10:40 50.59631 7.69549 33036 ft 460 kts 153°
2026-05-07 10:40 50.53940 7.74135 32651 ft 460 kts 153°
2026-05-07 10:41 50.51101 7.76420 31367 ft 470 kts 153°
2026-05-07 10:41 50.48168 7.78775 30269 ft 476 kts 153°
2026-05-07 10:41 50.45170 7.81179 29073 ft 478 kts 153°
2026-05-07 10:41 50.42352 7.83940 27977 ft 478 kts 142°
2026-05-07 10:42 50.39766 7.87135 26716 ft 482 kts 141°
2026-05-07 10:42 50.37149 7.90385 26060 ft 474 kts 141°
2026-05-07 10:42 50.34614 7.93536 25906 ft 456 kts 141°
2026-05-07 10:42 50.32175 7.96559 25787 ft 439 kts 141°
2026-05-07 10:43 50.29824 7.99470 25655 ft 423 kts 141°
2026-05-07 10:43 50.27530 8.02304 25528 ft 407 kts 141°
2026-05-07 10:43 50.25591 8.05321 25415 ft 393 kts 127°
2026-05-07 10:43 50.23943 8.08640 25226 ft 381 kts 127°
2026-05-07 10:44 50.22338 8.11887 24851 ft 377 kts 127°
2026-05-07 10:44 50.20741 8.15118 24423 ft 373 kts 127°
2026-05-07 10:44 50.19160 8.18327 24000 ft 371 kts 127°
2026-05-07 10:44 50.17596 8.21506 23540 ft 368 kts 127°
2026-05-07 10:45 50.16038 8.24663 23031 ft 366 kts 127°
2026-05-07 10:45 50.14490 8.27789 22539 ft 363 kts 127°
2026-05-07 10:45 50.12951 8.30896 22061 ft 360 kts 127°
2026-05-07 10:45 50.11481 8.34037 21586 ft 357 kts 118°
2026-05-07 10:46 50.10652 8.37632 21140 ft 352 kts 97°
2026-05-07 10:46 50.10692 8.41401 20670 ft 347 kts 76°
2026-05-07 10:46 50.11435 8.44939 20160 ft 344 kts 68°
2026-05-07 10:46 50.12262 8.48377 19717 ft 341 kts 68°
2026-05-07 10:47 50.13095 8.51828 19276 ft 339 kts 68°
2026-05-07 10:47 50.13922 8.55261 18825 ft 337 kts 68°
2026-05-07 10:47 50.14742 8.58669 18395 ft 335 kts 69°
2026-05-07 10:47 50.15552 8.62069 17914 ft 333 kts 68°
2026-05-07 10:48 50.16361 8.65491 17427 ft 331 kts 68°
2026-05-07 10:48 50.17144 8.68809 16982 ft 328 kts 69°
2026-05-07 10:48 50.17931 8.72136 16515 ft 326 kts 68°
2026-05-07 10:48 50.18714 8.75442 16069 ft 324 kts 68°
2026-05-07 10:49 50.19493 8.78725 15643 ft 322 kts 68°
2026-05-07 10:49 50.20264 8.81990 15182 ft 320 kts 68°
2026-05-07 10:49 50.21030 8.85238 14658 ft 320 kts 68°
2026-05-07 10:49 50.21820 8.88581 13699 ft 335 kts 68°
2026-05-07 10:50 50.22640 8.92067 12562 ft 350 kts 68°
2026-05-07 10:50 50.23498 8.95705 11385 ft 363 kts 68°
2026-05-07 10:50 50.24383 8.99466 10166 ft 376 kts 68°
2026-05-07 10:50 50.25213 9.03379 9094 ft 379 kts 77°
2026-05-07 10:51 50.25213 9.07346 8349 ft 355 kts 101°
2026-05-07 10:51 50.24353 9.10755 8001 ft 324 kts 121°
2026-05-07 10:51 50.22965 9.13335 7752 ft 297 kts 140°
2026-05-07 10:51 50.21291 9.14989 7498 ft 275 kts 158°
2026-05-07 10:52 50.19524 9.15757 7243 ft 256 kts 176°
2026-05-07 10:52 50.17778 9.15533 6998 ft 250 kts 199°
2026-05-07 10:52 50.16285 9.14280 6844 ft 243 kts 224°
2026-05-07 10:52 50.15267 9.12224 6725 ft 239 kts 249°
2026-05-07 10:53 50.14996 9.09742 6598 ft 232 kts 281°
2026-05-07 10:53 50.15288 9.07266 6482 ft 233 kts 282°
2026-05-07 10:53 50.15572 9.04776 6359 ft 233 kts 282°
2026-05-07 10:53 50.15795 9.02272 6224 ft 234 kts 271°
2026-05-07 10:54 50.15529 8.99762 6094 ft 236 kts 255°
2026-05-07 10:54 50.14990 8.97335 5970 ft 237 kts 252°
2026-05-07 10:54 50.14421 8.94961 5835 ft 236 kts 252°
2026-05-07 10:54 50.13856 8.92571 5719 ft 230 kts 252°
2026-05-07 10:55 50.13317 8.90275 5619 ft 223 kts 252°
2026-05-07 10:55 50.12788 8.88021 5377 ft 219 kts 252°
2026-05-07 10:55 50.12273 8.85834 5089 ft 210 kts 253°
2026-05-07 10:55 50.11779 8.83732 4783 ft 203 kts 252°
2026-05-07 10:56 50.11300 8.81701 4483 ft 196 kts 252°
2026-05-07 10:56 50.10836 8.79733 4203 ft 191 kts 253°
2026-05-07 10:56 50.10386 8.77826 3945 ft 182 kts 253°
2026-05-07 10:56 50.09970 8.76070 3675 ft 164 kts 253°
2026-05-07 10:57 50.09588 8.74455 3452 ft 154 kts 253°
2026-05-07 10:57 50.09223 8.72909 3228 ft 151 kts 253°
2026-05-07 10:57 50.08981 8.71881 3083 ft 149 kts 253°
2026-05-07 10:57 50.08624 8.70376 2862 ft 148 kts 253°
2026-05-07 10:58 50.08274 8.68897 2655 ft 147 kts 254°
2026-05-07 10:58 50.07921 8.67405 2440 ft 147 kts 253°
2026-05-07 10:58 50.07564 8.65904 2216 ft 145 kts 253°
2026-05-07 10:58 50.07220 8.64455 2018 ft 144 kts 253°
2026-05-07 10:59 50.06874 8.62998 1810 ft 143 kts 253°
2026-05-07 10:59 50.06528 8.61544 1587 ft 143 kts 253°
2026-05-07 10:59 50.06183 8.60092 1380 ft 143 kts 252°
2026-05-07 10:59 50.05836 8.58637 1165 ft 142 kts 252°
2026-05-07 11:00 50.05483 8.57166 948 ft 143 kts 252°
2026-05-07 11:00 50.05141 8.55748 758 ft 141 kts 249°
2026-05-07 11:00 50.04813 8.54312 549 ft 140 kts 250°
2026-05-07 11:00 50.04472 8.52909 362 ft 137 kts 248°
2026-05-07 11:01 50.04176 8.51678 332 ft 101 kts 249°
2026-05-07 11:01 50.03992 8.50903 324 ft 51 kts 249°
2026-05-07 11:01 50.03890 8.50508 320 ft 32 kts 243°
2026-05-07 11:01 50.03751 8.50258 319 ft 29 kts 216°
2026-05-07 11:02 50.03661 8.50190 322 ft 9 kts 175°
2026-05-07 11:02 50.03631 8.50262 324 ft 8 kts 97°
2026-05-07 11:02 50.03647 8.50334 325 ft 7 kts 65°
2026-05-07 11:02 50.03663 8.50402 327 ft 7 kts 74°
2026-05-07 11:03 50.03682 8.50506 325 ft 11 kts 72°
2026-05-07 11:03 50.03713 8.50645 328 ft 19 kts 69°
2026-05-07 11:03 50.03780 8.50919 331 ft 29 kts 69°
2026-05-07 11:03 50.03851 8.51216 336 ft 30 kts 70°
2026-05-07 11:04 50.03924 8.51520 332 ft 30 kts 69°
2026-05-07 11:04 50.04001 8.51836 334 ft 32 kts 69°
2026-05-07 11:04 50.04075 8.52155 351 ft 31 kts 70°
2026-05-07 11:04 50.04153 8.52472 352 ft 34 kts 69°
2026-05-07 11:05 50.04237 8.52831 353 ft 35 kts 70°
2026-05-07 11:05 50.04322 8.53180 366 ft 33 kts 69°
2026-05-07 11:05 50.04389 8.53503 375 ft 31 kts 83°
2026-05-07 11:05 50.04418 8.53835 375 ft 31 kts 84°
2026-05-07 11:06 50.04440 8.54174 375 ft 32 kts 83°
2026-05-07 11:06 50.04443 8.54523 367 ft 34 kts 106°
2026-05-07 11:06 50.04312 8.54788 365 ft 29 kts 147°
2026-05-07 11:06 50.04147 8.54859 356 ft 16 kts 162°
2026-05-07 11:07 50.04083 8.54897 354 ft 0 kts 158°
2026-05-07 11:07 50.04080 8.54899 354 ft 3 kts 156°
2026-05-07 11:08 50.04018 8.54913 352 ft 14 kts 199°
2026-05-07 11:08 50.03921 8.54860 355 ft 16 kts 169°
2026-05-07 11:08 50.03881 8.54885 353 ft 0 kts 157°